SCP
0 0 0 0 0 0 0 0 0 0 0 0 0 0 0 0 0 0 0 0 0 0 0 0 0 0 0 0 0 0 0 0 0 0 0 0 0 0 0 0 0 0 0 0 0 0 0 0 0
0 0 0 0 0 0 0 0 0 0 0 0 0 0 0 0 0 0 0 0 0 0 0 0 0 0 0 0 0 0 0 0 0 0 0 0 0 0 0 0 0 0 0 0 0 0 0 0 0
0 0 0 0 0 0 0 0 0 0 0 0 0 0 0 0 0 0 0 0 0 0 0 0 0 0 0 0 0 0 0 0 0 0 0 0 0 0 0 0 0 0 0 0 0 0 0 0 0
0 0 0 0 0 0 0 0 0 0 0 0 0 0 0 0 0 0 0 0 0 0 0 0 0 0 0 0 0 0 0 0 0 0 0 0 0 0 0 0 0 0 0 0 0 0 0 0 0
-0 0 0 0 0 0 0 0 0 0 0 0 0 0 0 0 0 0 0 0 0 0 0 0 0 0 0 0 0 0 0 0 0 0 0 0 0 0 0 0 0 0 0 0 0 0 0 0 0
0 0 0 0 0 0 0 0 0 0 0 0 0 0 0 0 0 0 0 0 0 0 0 0 0 0 0 0 0 0 0 0 0 0 0 0 0 0 0 0 0 0 0 0 0 0 0 0 0
0 0 0 0 0 0 0 0 0 0 0 0 0 0 0 0 0 0 0 0 0 0 0 0 0 0 0 0 0 0 0 0 0 0 0 0 0 0 0 0 0 0 0 0 0 0 0 0 0
0 0 0 0 0 0 0 0 0 0 0 0 0 0 0 0 0 0 0 0 0 0 0 0 0 0 0 0 0 0 0 0 0 0 0 0 0 0 0 0 0 0 0 0 0 0 0 0 0
0 0 0 0 0 0 0 0 0 0 0 0 0 0 0 0 1 1 1 0 0 0 0 0 0 0 0 0 0 0 0 0 0 0 0 0 0 0 0 0 0 0 0 0 0 0 0 0 0
0 0 0 0 0 0 0 0 0 0 0 0 0 0 0 1 1 1 1 1 0 0 0 0 0 0 0 0 0 0 0 0 0 0 0 0 0 0 0 0 0 0 0 0 0 0 0 0 0
0 0 0 0 0 0 0 0 0 0 0 0 0 0 0 1 1 1 1 1 0 0 0 0 0 0 0 0 0 0 0 0 0 0 0 0 0 0 0 0 0 0 0 0 0 0 0 0 0
0 0 0 0 0 0 0 0 0 0 0 0 0 0 0 1 1 1 1 0 0 0 0 0 0 0 0 0 0 0 0 0 0 0 0 0 0 0 0 0 0 0 0 0 0 0 0 0 0
0 0 0 0 0 0 0 0 0 0 0 0 0 0 0 1 1 0 0 0 0 0 0 0 0 0 0 0 0 0 0 0 0 0 0 0 0 0 0 0 0 0 0 0 0 0 0 0 0
0 0 0 0 0 0 0 0 0 0 0 0 0 0 0 0 0 0 0 0 0 0 0 0 0 0 0 0 0 0 0 0 0 0 0 0 0 0 0 0 0 0 0 0 0 0 0 0 0
0 0 0 0 0 0 0 0 0 0 0 0 0 0 0 0 0 0 0 0 0 0 0 0 0 0 0 0 0 0 0 0 0 0 0 0 0 0 0 0 0 0 0 0 0 0 0 0 0
0 0 0 0 0 0 0 0 0 0 0 0 0 0 0 0 0 0 0 0 0 0 1 1 1 1 0 0 0 0 0 0 0 0 0 0 0 0 0 0 0 0 0 0 0 0 0 0 0
0 0 0 0 0 0 0 0 0 0 0 0 0 0 0 0 0 0 0 0 0 0 1 1 1 1 1 0 0 0 0 0 0 0 0 0 0 0 0 0 0 0 0 0 0 0 0 0 0
0 0 0 0 0 0 0 0 0 0 0 0 0 0 0 0 0 0 0 0 0 0 1 1 1 1 1 1 0 0 0 0 0 0 0 0 0 0 0 0 0 0 0 0 0 0 0 0 0
0 0 0 0 0 0 0 0 0 0 0 0 0 0 0 0 0 0 0 0 0 0 0 0 1 1 1 1 0 0 0 0 0 0 0 0 0 0 0 0 0 0 0 0 0 0 0 0 0
0 0 0 0 0 0 0 0 0 0 0 0 0 0 0 0 0 0 0 0 0 0 0 0 1 1 1 1 1 0 0 0 0 0 0 0 0 0 0 0 0 0 0 0 0 0 0 0 0
0 0 0 0 0 0 0 0 0 0 0 0 0 0 0 0 0 0 0 0 0 0 0 0 1 1 1 1 1 1 1 0 0 0 0 0 0 0 0 0 0 0 0 0 0 0 0 0 0
0 0 0 0 0 0 0 0 0 0 0 0 0 0 0 0 0 0 0 0 0 0 0 0 1 1 1 1 1 1 1 0 0 0 0 0 0 0 0 0 0 0 0 0 0 0 0 0 0
0 0 0 0 0 0 0 0 0 0 0 0 0 0 0 0 0 0 0 0 0 0 0 0 0 1 1 1 1 1 1 0 0 0 0 0 0 0 0 0 0 0 0 0 0 0 0 0 0
0 0 0 0 0 0 0 0 0 0 0 0 0 0 0 0 0 0 0 0 0 0 0 0 0 0 0 0 1 1 1 1 1 0 0 0 0 0 0 0 0 0 0 0 0 0 0 0 0
0 0 0 0 0 0 0 0 0 0 0 0 0 0 0 0 0 0 0 0 0 0 0 0 0 0 0 0 1 1 1 1 1 1 1 1 0 0 0 0 0 0 0 0 0 0 0 0 0
0 0 0 0 0 0 0 0 0 0 0 0 0 0 0 0 0 0 0 0 0 0 0 0 0 0 0 0 0 1 1 1 1 1 1 1 1 0 0 0 0 0 0 0 0 0 0 0 0
0 0 0 0 0 0 0 0 0 0 0 0 0 0 0 0 0 0 0 1 0 0 0 0 0 0 0 0 0 0 0 0 0 0 1 1 1 0 0 0 0 0 0 0 0 0 0 0 0
0 0 0 0 0 0 0 0 0 0 0 0 0 0 0 0 0 0 0 0 0 0 0 0 0 0 0 0 0 0 0 0 0 0 0 1 1 0 0 0 0 0 0 0 0 0 0 0 0
0 0 0 0 0 0 0 0 0 0 0 0 0 0 0 0 0 0 0 0 0 0 0 0 0 0 0 0 0 0 0 0 0 0 0 0 0 0 0 0 0 0 0 0 0 0 0 0 0
0 0 0 0 0 0 0 0 0 0 0 0 0 0 0 0 0 0 0 0 0 0 0 0 0 0 0 0 0 0 0 0 0 0 0 0 0 0 0 0 0 0 0 0 0 0 0 0 0
Wind_Speed
2 3 2 2 5 6 2 3 1 1 1 1 3 4 4 3 3 2 1 7 9 8 7 9 10 9 9 9 9 10 10 10 10 10 10 10 10 9 10 10 11 11 12 12 12 13 13 13 13
2 2 2 4 6 3 3 3 1 1 2 3 4 4 4 2 2 5 4 6 9 9 7 7 10 10 9 9 9 9 9 10 10 10 10 10 10 9 10 10 11 11 11 11 11 12 12 12 12
2 2 4 5 4 3 3 2 2 0 2 2 3 3 2 3 4 5 5 10 8 7 6 7 11 10 9 9 9 9 9 9 9 9 9 9 9 9 9 10 10 10 10 10 10 10 11 11 11
2 4 5 5 0 4 4 3 2 2 1 2 3 3 2 1 4 5 10 11 9 6 5 6 11 10 10 9 9 9 9 8 9 9 9 8 8 8 8 9 9 9 9 9 9 9 10 10 10
4 5 6 3 3 4 4 3 3 2 1 2 3 3 2 3 6 10 11 10 10 7 5 5 10 10 10 9 9 8 8 8 8 8 8 7 7 7 7 8 8 8 9 9 9 8 8 9 9
5 5 5 1 4 4 2 1 2 2 2 2 4 4 1 2 7 9 10 8 8 7 5 4 9 10 9 9 8 8 7 7 7 7 7 6 6 6 6 6 7 7 8 8 8 8 7 7 7
5 5 3 2 2 3 1 1 3 3 2 2 4 4 1 2 5 8 9 8 6 6 5 3 4 6 8 8 8 7 6 7 7 7 6 6 6 5 5 6 6 7 7 7 7 7 7 6 6
5 5 2 1 2 3 1 1 1 3 1 2 4 5 4 5 8 9 8 7 6 5 4 4 3 3 3 4 7 7 6 6 6 6 7 6 5 5 5 5 5 6 6 6 7 6 7 6 6
4 5 1 3 4 3 0 1 0 2 3 2 1 2 4 12 12 10 7 5 5 5 4 3 4 3 3 3 4 5 5 5 5 4 6 4 2 1 2 3 4 5 5 6 6 6 6 6 5
4 3 5 5 4 2 1 2 2 2 2 1 3 5 10 12 11 10 9 8 7 7 6 4 4 4 3 3 3 2 2 2 2 2 2 2 2 1 2 2 3 4 4 4 5 5 5 4 2
3 5 4 4 4 2 1 1 2 5 2 4 6 9 12 11 10 9 8 7 7 6 6 5 5 4 4 2 2 1 1 1 2 2 2 2 2 1 1 1 1 1 2 2 2 2 2 2 2
2 4 4 4 2 1 2 2 1 3 5 3 7 11 11 11 10 10 10 7 6 5 6 5 5 4 4 3 2 2 1 1 1 1 2 2 1 1 1 1 1 1 1 1 2 1 2 2 2
2 4 3 3 2 2 2 2 2 2 1 5 8 9 10 10 9 7 6 5 5 6 5 5 6 5 4 3 2 2 2 2 2 2 2 2 2 2 1 1 1 1 1 1 1 1 2 2 2
2 3 3 3 2 0 3 0 1 2 3 6 8 7 8 8 7 5 5 5 6 6 5 5 6 6 4 3 2 2 2 2 2 1 2 2 2 2 2 1 1 1 1 1 1 1 1 1 1
1 3 5 3 1 1 3 2 2 2 5 6 6 7 7 6 6 6 6 6 6 5 5 5 6 5 5 4 3 2 2 2 2 2 2 2 3 3 2 2 1 1 1 2 2 2 2 1 1
3 3 3 5 2 1 5 3 4 2 6 5 5 5 5 5 6 5 5 4 5 5 5 5 5 6 6 4 3 2 2 2 2 2 2 2 3 3 2 2 1 1 2 2 2 2 2 1 1
4 1 2 5 2 2 3 3 4 1 5 4 4 4 4 3 3 3 4 5 4 5 5 5 4 5 6 5 3 2 2 1 1 1 2 2 3 3 3 2 2 2 2 2 2 2 2 2 1
2 1 2 4 3 2 0 3 4 1 3 4 3 3 3 4 4 3 3 4 3 3 4 5 4 4 4 3 3 2 2 1 1 1 2 2 3 3 3 2 2 2 2 2 2 2 2 2 2
3 2 3 5 4 0 2 2 4 2 2 3 3 3 3 3 2 2 4 4 4 3 3 4 4 3 4 3 3 3 2 2 1 2 2 2 3 3 3 3 3 3 2 3 3 2 3 2 2
2 2 4 5 2 1 1 2 3 1 3 4 5 5 4 3 2 2 3 3 4 4 4 4 5 5 4 3 3 3 2 2 2 1 1 2 3 3 4 4 3 3 3 3 3 3 2 1 1
4 6 6 5 3 2 1 3 3 2 1 0 1 3 4 5 5 3 3 3 3 3 4 5 5 5 4 4 2 2 2 1 1 1 1 2 3 3 3 4 3 3 3 3 3 4 4 3 1
5 7 6 3 1 2 1 2 5 3 3 2 2 2 3 3 3 4 3 3 3 3 3 3 4 4 3 4 4 5 4 3 3 2 2 2 2 3 3 4 4 3 3 3 3 3 3 4 2
6 2 3 2 3 0 1 2 7 2 3 5 4 2 2 3 4 4 4 4 2 2 2 2 2 2 2 3 4 5 4 3 2 2 2 2 1 2 3 3 3 3 3 3 2 3 3 3 3
3 5 5 5 4 1 3 4 6 3 5 4 2 1 1 2 2 2 2 3 2 1 1 2 2 1 2 3 3 4 5 4 3 3 3 2 1 1 2 3 3 3 3 3 3 3 3 2 3
4 6 4 4 3 5 2 3 7 4 3 3 3 2 2 2 2 3 3 3 2 2 2 2 2 2 2 3 3 4 4 5 5 4 4 3 2 2 2 3 3 3 3 3 3 3 3 3 3
3 7 7 5 5 4 1 4 6 3 2 0 1 2 2 1 2 3 3 3 3 3 2 2 2 2 2 3 3 3 4 3 3 3 3 3 3 2 3 3 3 3 3 3 3 3 3 2 3
4 3 5 6 2 1 4 4 5 2 3 2 1 1 1 0 1 2 1 1 1 2 2 3 3 2 2 3 3 3 3 3 3 2 2 2 2 2 3 3 3 3 3 3 3 3 3 3 3
4 6 5 5 4 3 4 3 4 3 3 2 1 1 1 1 0 0 1 1 1 1 1 2 2 3 3 3 3 3 3 3 2 2 2 2 2 2 3 3 3 3 2 3 3 3 3 3 3
3 3 4 4 4 5 3 6 4 4 3 3 3 3 2 1 1 0 0 0 0 1 1 2 2 2 2 2 3 3 3 3 3 2 2 3 3 3 3 3 3 3 3 3 3 3 3 3 3
3 4 5 4 3 4 4 7 3 2 2 2 2 1 1 1 1 0 0 0 0 1 1 1 2 2 2 2 3 3 2 3 3 3 3 3 3 2 3 3 3 3 3 3 3 3 4 4 4
Wind_Direction
155 125 119 79 55 49 354 287 267 351 48 83 101 106 119 123 149 167 131 138 134 141 149 152 147 139 133 126 120 117 115 112 112 111 111 108 106 103 101 100 99 102 106 107 107 107 109 111 109
145 137 76 60 75 56 300 277 273 222 154 123 88 81 83 81 89 118 134 143 138 142 144 150 148 143 137 129 123 120 117 115 114 114 114 112 110 107 105 104 103 103 106 108 109 109 111 111 111
147 99 81 69 89 166 240 242 213 76 139 124 92 73 105 143 143 153 154 138 132 136 138 151 149 145 140 135 128 123 120 117 117 118 118 117 115 112 110 109 107 106 106 107 110 112 112 111 113
92 50 55 68 107 225 225 242 189 140 72 76 113 95 77 92 150 142 134 137 133 134 137 153 149 148 144 138 133 126 123 120 120 120 121 120 119 117 115 115 112 110 109 110 111 111 111 114 116
63 73 58 35 287 263 245 230 186 155 148 116 117 108 66 33 101 121 133 137 138 137 140 153 151 149 145 142 138 133 129 127 126 124 122 122 120 120 120 119 117 115 113 113 112 113 113 112 113
59 67 77 331 293 290 276 194 149 130 142 123 118 116 92 87 118 133 132 132 136 140 139 145 154 151 149 146 142 138 134 132 130 129 128 125 123 121 120 121 120 117 117 116 115 114 114 113 114
102 95 134 209 281 300 291 68 132 137 140 165 136 119 128 124 132 128 122 121 124 130 133 138 150 153 153 148 145 142 138 136 131 130 131 130 130 132 130 126 123 122 120 120 119 117 113 108 110
120 101 104 238 228 265 286 57 128 133 155 118 123 145 190 171 132 116 110 113 122 129 139 146 143 138 144 151 152 146 142 141 136 131 130 128 129 134 136 132 128 127 128 125 124 123 114 111 111
90 79 187 225 206 241 262 69 345 104 107 90 99 158 156 134 128 121 119 123 144 153 153 153 153 147 144 143 149 148 151 146 138 134 132 126 96 94 115 134 134 133 132 130 130 129 118 111 111
92 133 225 223 203 206 214 190 179 111 85 73 61 84 119 133 140 146 155 164 173 176 175 171 166 162 155 156 139 128 138 125 112 100 113 102 87 93 107 104 129 125 129 126 127 127 121 106 100
149 191 233 254 226 196 199 237 166 142 213 208 173 149 144 148 154 162 173 178 182 178 178 177 174 166 160 152 142 142 129 117 109 104 102 100 90 71 65 60 59 71 98 91 96 89 89 102 111
187 241 227 259 242 168 191 192 161 187 223 187 158 151 152 160 170 174 179 180 171 170 185 178 171 166 169 156 154 151 146 144 143 139 129 123 119 104 95 90 76 68 80 88 82 89 95 105 116
218 268 268 254 269 200 169 187 172 250 243 113 129 143 158 169 178 181 176 164 165 174 183 181 174 171 171 162 169 162 160 157 155 151 159 152 150 151 137 121 118 116 97 102 97 96 104 105 107
245 268 303 313 317 241 146 290 110 259 116 120 135 150 164 172 178 172 173 174 179 182 178 176 176 170 163 166 175 170 161 159 157 165 172 164 163 157 149 140 133 133 120 116 118 121 121 114 118
290 333 345 345 343 255 117 6 263 220 125 131 150 161 167 170 170 183 189 186 185 178 174 175 179 165 165 175 183 167 166 165 175 185 184 175 171 168 165 158 169 178 150 138 120 111 103 107 110
31 41 344 311 352 7 116 245 279 146 136 149 159 164 170 176 180 184 181 185 185 166 171 178 174 166 168 170 167 159 167 171 187 187 188 192 181 171 161 159 176 165 134 131 128 122 114 108 112
28 33 293 308 356 50 103 247 286 149 147 165 175 171 168 168 179 186 178 183 183 176 172 169 166 168 169 165 157 162 165 182 198 190 193 193 182 172 167 171 175 152 133 130 143 117 128 125 117
241 246 282 286 313 32 351 268 296 230 169 174 173 172 176 181 198 190 170 165 161 166 166 167 166 164 156 151 143 149 155 193 209 199 206 188 179 173 170 168 165 151 137 133 129 128 111 121 135
175 201 271 276 285 300 257 271 291 267 189 185 181 181 192 204 198 153 155 150 145 149 152 161 164 164 155 163 166 172 187 193 214 224 210 197 183 173 165 162 157 154 154 162 149 137 117 102 99
183 247 266 285 297 169 238 282 293 263 227 205 191 193 198 182 137 128 130 140 151 159 160 163 166 173 174 179 182 177 174 182 195 216 199 193 183 175 170 164 166 162 154 152 155 139 125 114 117
219 210 225 239 332 23 103 329 321 312 339 344 210 204 200 189 176 165 153 158 155 168 180 178 176 176 175 161 153 137 102 89 119 197 217 220 187 180 173 172 164 163 164 171 175 163 149 153 155
246 226 201 203 103 295 97 273 286 280 314 297 253 230 212 192 170 171 166 166 175 191 187 178 176 175 175 163 165 166 175 180 194 192 206 212 185 177 174 171 167 165 169 174 185 173 164 155 164
220 228 166 176 161 295 346 180 280 307 279 269 261 240 226 190 170 176 179 174 178 177 172 170 157 164 173 176 180 182 184 184 179 170 167 174 175 175 170 165 163 162 168 177 172 159 162 166 168
163 69 55 52 79 242 235 176 269 248 237 260 257 236 212 179 160 170 161 133 131 131 133 135 143 162 179 176 185 188 180 171 159 164 170 176 177 174 170 165 166 166 168 175 175 162 162 171 164
87 90 34 359 8 251 246 183 247 262 258 226 216 208 181 165 161 166 150 150 163 161 164 154 154 169 182 169 180 187 179 174 176 180 184 179 177 182 186 174 173 174 177 172 159 154 165 170 167
165 139 156 199 226 268 288 226 252 292 317 340 159 151 132 143 178 184 180 173 179 182 176 166 171 182 192 185 188 179 172 173 183 182 179 183 186 190 179 173 174 176 173 169 160 158 175 170 177
135 165 164 139 169 249 269 281 300 358 20 34 67 84 100 200 192 186 166 150 179 188 189 190 183 184 198 200 188 178 175 172 176 172 163 171 176 175 171 167 168 175 174 172 167 171 182 175 178
130 142 98 120 159 243 276 264 260 279 282 275 219 225 259 289 340 61 109 128 203 209 208 201 186 193 202 197 189 181 180 177 170 156 158 167 173 169 162 165 167 173 173 171 170 175 183 175 185
77 84 102 122 156 166 235 263 237 225 222 219 224 217 216 215 167 109 137 184 180 176 195 212 205 197 198 200 197 181 172 165 160 166 179 181 173 170 169 176 173 175 176 175 171 184 179 180 192
135 149 142 154 219 181 189 257 286 242 228 197 209 235 192 166 130 63 281 4 5 224 220 206 209 209 213 198 186 187 175 164 165 184 192 182 175 172 175 172 175 181 180 181 179 189 191 190 197